Time,TemperatureF,DewpointF,PressureIn,WindDirection,WindDirectionDegrees,WindSpeedMPH,WindSpeedGustMPH,Humidity,HourlyPrecipIn,Conditions,Clouds,dailyrainin,SoftwareType,DateUTC
2013-06-24 00:00:00,71.6,69.8,30.05,SW,215,2.0,2.0,94,0.00,,,0.00,Wunderground v.1.15,2013-06-24 04:00:00,
2013-06-24 00:01:00,71.6,69.8,30.05,SW,219,2.0,4.0,94,0.00,,,0.00,Wunderground v.1.15,2013-06-24 04:01:00,
2013-06-24 00:02:00,71.6,69.8,30.05,SSW,193,2.0,4.0,94,0.00,,,0.00,Wunderground v.1.15,2013-06-24 04:02:00,
2013-06-24 00:05:00,71.5,69.7,30.05,WSW,248,1.0,4.0,94,0.00,,,0.00,Wunderground v.1.15,2013-06-24 04:05:00,
2013-06-24 00:07:00,71.5,69.7,30.04,SSE,148,1.0,4.0,94,0.00,,,0.00,Wunderground v.1.15,2013-06-24 04:07:00,
2013-06-24 00:11:00,71.4,69.6,30.05,SSE,152,2.0,4.0,94,0.00,,,0.00,Wunderground v.1.15,2013-06-24 04:11:00,
2013-06-24 00:16:00,71.4,69.6,30.05,SSE,149,2.0,4.0,94,0.00,,,0.00,Wunderground v.1.15,2013-06-24 04:16:00,
2013-06-24 00:22:00,71.4,69.6,30.05,WSW,248,2.0,4.0,94,0.00,,,0.00,Wunderground v.1.15,2013-06-24 04:22:00,
2013-06-24 00:27:00,71.4,69.6,30.04,West,264,1.0,4.0,94,0.00,,,0.00,Wunderground v.1.15,2013-06-24 04:27:00,
2013-06-24 00:33:00,71.4,69.6,30.05,SSW,193,1.0,4.0,94,0.00,,,0.00,Wunderground v.1.15,2013-06-24 04:33:00,
2013-06-24 00:39:00,71.4,69.6,30.04,WSW,243,2.0,5.0,94,0.00,,,0.00,Wunderground v.1.15,2013-06-24 04:39:00,
2013-06-24 00:44:00,71.4,69.6,30.04,South,186,2.0,4.0,94,0.00,,,0.00,Wunderground v.1.15,2013-06-24 04:44:00,
2013-06-24 00:49:00,71.4,69.6,30.05,SW,228,2.0,4.0,94,0.00,,,0.00,Wunderground v.1.15,2013-06-24 04:49:00,
2013-06-24 00:55:00,71.4,69.6,30.04,SW,222,2.0,4.0,94,0.00,,,0.00,Wunderground v.1.15,2013-06-24 04:55:00,
2013-06-24 01:01:00,71.4,69.6,30.04,WSW,246,2.0,4.0,94,0.00,,,0.00,Wunderground v.1.15,2013-06-24 05:01:00,
2013-06-24 01:06:00,71.4,69.6,30.04,SSW,212,2.0,6.0,94,0.00,,,0.00,Wunderground v.1.15,2013-06-24 05:06:00,
2013-06-24 01:11:00,71.3,69.5,30.04,SW,218,2.0,3.0,94,0.00,,,0.00,Wunderground v.1.15,2013-06-24 05:11:00,
2013-06-24 01:17:00,71.2,69.4,30.04,SSW,212,2.0,4.0,94,0.00,,,0.00,Wunderground v.1.15,2013-06-24 05:17:00,
2013-06-24 01:22:00,71.2,69.4,30.04,SW,224,2.0,4.0,94,0.00,,,0.00,Wunderground v.1.15,2013-06-24 05:22:00,
2013-06-24 01:28:00,71.1,69.3,30.03,SW,232,3.0,4.0,94,0.00,,,0.00,Wunderground v.1.15,2013-06-24 05:28:00,
2013-06-24 01:34:00,71.1,69.3,30.03,WSW,245,2.0,4.0,94,0.00,,,0.00,Wunderground v.1.15,2013-06-24 05:34:00,
2013-06-24 01:39:00,71.1,69.6,30.03,SSW,206,2.0,4.0,95,0.00,,,0.00,Wunderground v.1.15,2013-06-24 05:39:00,
2013-06-24 01:45:00,71.0,69.5,30.03,SW,215,3.0,5.0,95,0.00,,,0.00,Wunderground v.1.15,2013-06-24 05:45:00,
2013-06-24 01:51:00,71.0,69.5,30.03,South,188,2.0,4.0,95,0.00,,,0.00,Wunderground v.1.15,2013-06-24 05:51:00,
2013-06-24 01:56:00,71.0,69.5,30.03,SSW,212,1.0,4.0,95,0.00,,,0.00,Wunderground v.1.15,2013-06-24 05:56:00,
2013-06-24 02:03:00,71.0,69.5,30.03,SW,225,0.0,4.0,95,0.00,,,0.00,Wunderground v.1.15,2013-06-24 06:03:00,
2013-06-24 02:09:00,71.0,69.5,30.03,SW,229,1.0,4.0,95,0.00,,,0.00,Wunderground v.1.15,2013-06-24 06:09:00,
2013-06-24 02:14:00,71.0,69.5,30.03,SW,216,1.0,4.0,95,0.00,,,0.00,Wunderground v.1.15,2013-06-24 06:14:00,
2013-06-24 02:21:00,71.0,69.5,30.03,SW,224,1.0,4.0,95,0.00,,,0.00,Wunderground v.1.15,2013-06-24 06:21:00,
2013-06-24 02:27:00,71.1,69.6,30.03,SSW,201,1.0,4.0,95,0.00,,,0.00,Wunderground v.1.15,2013-06-24 06:27:00,
2013-06-24 02:33:00,71.1,69.6,30.03,SSW,205,1.0,4.0,95,0.00,,,0.00,Wunderground v.1.15,2013-06-24 06:33:00,
2013-06-24 02:41:00,71.1,69.6,30.02,SSW,205,1.0,3.0,95,0.00,,,0.00,Wunderground v.1.15,2013-06-24 06:41:00,
2013-06-24 02:46:00,71.1,69.6,30.02,SSW,205,2.0,4.0,95,0.00,,,0.00,Wunderground v.1.15,2013-06-24 06:46:00,
2013-06-24 02:52:00,71.1,69.6,30.02,WSW,250,1.0,4.0,95,0.00,,,0.00,Wunderground v.1.15,2013-06-24 06:52:00,
2013-06-24 02:58:00,71.2,69.7,30.02,SSW,208,1.0,4.0,95,0.00,,,0.00,Wunderground v.1.15,2013-06-24 06:58:00,
2013-06-24 03:04:00,71.2,69.7,30.02,SSW,208,0.0,4.0,95,0.00,,,0.00,Wunderground v.1.15,2013-06-24 07:04:00,
2013-06-24 03:09:00,71.2,69.7,30.02,SW,232,0.0,4.0,95,0.00,,,0.00,Wunderground v.1.15,2013-06-24 07:09:00,
2013-06-24 03:15:00,71.2,69.7,30.02,SSW,198,0.0,4.0,95,0.00,,,0.00,Wunderground v.1.15,2013-06-24 07:15:00,
2013-06-24 03:21:00,71.2,69.7,30.02,SW,232,0.0,4.0,95,0.00,,,0.00,Wunderground v.1.15,2013-06-24 07:21:00,
2013-06-24 03:26:00,71.2,69.7,30.02,SW,218,0.0,4.0,95,0.00,,,0.00,Wunderground v.1.15,2013-06-24 07:26:00,
2013-06-24 03:31:00,71.2,69.7,30.01,SW,218,0.0,4.0,95,0.00,,,0.00,Wunderground v.1.15,2013-06-24 07:31:00,
2013-06-24 03:38:00,71.2,69.7,30.01,SW,236,0.0,4.0,95,0.00,,,0.00,Wunderground v.1.15,2013-06-24 07:38:00,
2013-06-24 03:43:00,71.2,69.7,30.01,SW,225,1.0,4.0,95,0.00,,,0.00,Wunderground v.1.15,2013-06-24 07:43:00,
2013-06-24 03:50:00,71.1,69.6,30.01,SSW,197,0.0,4.0,95,0.00,,,0.00,Wunderground v.1.15,2013-06-24 07:50:00,
2013-06-24 03:55:00,71.1,69.6,30.01,SSW,212,1.0,4.0,95,0.00,,,0.00,Wunderground v.1.15,2013-06-24 07:55:00,
2013-06-24 04:01:00,71.0,69.5,30.01,SSW,207,2.0,4.0,95,0.00,,,0.00,Wunderground v.1.15,2013-06-24 08:01:00,
2013-06-24 04:07:00,71.0,69.5,30.01,SSW,210,1.0,4.0,95,0.00,,,0.00,Wunderground v.1.15,2013-06-24 08:07:00,
2013-06-24 04:12:00,71.0,69.5,30.01,SW,222,1.0,4.0,95,0.00,,,0.00,Wunderground v.1.15,2013-06-24 08:12:00,
2013-06-24 04:17:00,71.0,69.5,30.01,SW,236,1.0,4.0,95,0.00,,,0.00,Wunderground v.1.15,2013-06-24 08:17:00,
2013-06-24 04:22:00,71.0,69.5,30.01,West,263,1.0,4.0,95,0.00,,,0.00,Wunderground v.1.15,2013-06-24 08:22:00,
2013-06-24 04:30:00,70.9,69.4,30.00,SSW,194,1.0,4.0,95,0.00,,,0.00,Wunderground v.1.15,2013-06-24 08:30:00,
2013-06-24 04:36:00,70.9,69.4,30.00,SSW,208,1.0,4.0,95,0.00,,,0.00,Wunderground v.1.15,2013-06-24 08:36:00,
2013-06-24 04:43:00,70.9,69.4,30.00,SW,229,1.0,4.0,95,0.00,,,0.00,Wunderground v.1.15,2013-06-24 08:43:00,
2013-06-24 04:48:00,70.9,69.4,30.00,West,271,1.0,4.0,95,0.00,,,0.00,Wunderground v.1.15,2013-06-24 08:48:00,
2013-06-24 04:53:00,70.8,69.3,30.00,WSW,250,1.0,4.0,95,0.00,,,0.00,Wunderground v.1.15,2013-06-24 08:53:00,
2013-06-24 04:59:00,70.8,69.6,30.00,WSW,239,1.0,4.0,96,0.00,,,0.00,Wunderground v.1.15,2013-06-24 08:59:00,
2013-06-24 05:05:00,70.8,69.6,30.00,WSW,239,1.0,4.0,96,0.00,,,0.00,Wunderground v.1.15,2013-06-24 09:05:00,
2013-06-24 05:11:00,70.7,69.5,30.00,SW,232,1.0,4.0,96,0.00,,,0.00,Wunderground v.1.15,2013-06-24 09:11:00,
2013-06-24 05:17:00,70.7,69.5,30.00,WSW,249,1.0,4.0,96,0.00,,,0.00,Wunderground v.1.15,2013-06-24 09:17:00,
2013-06-24 05:24:00,70.7,69.5,30.00,West,277,1.0,4.0,96,0.00,,,0.00,Wunderground v.1.15,2013-06-24 09:24:00,
2013-06-24 05:30:00,70.7,69.5,30.00,WSW,238,0.0,4.0,96,0.00,,,0.00,Wunderground v.1.15,2013-06-24 09:30:00,
2013-06-24 05:35:00,70.7,69.5,30.00,SW,216,1.0,4.0,96,0.00,,,0.00,Wunderground v.1.15,2013-06-24 09:35:00,
2013-06-24 05:41:00,70.7,69.5,30.00,WSW,254,1.0,4.0,96,0.00,,,0.00,Wunderground v.1.15,2013-06-24 09:41:00,
2013-06-24 05:47:00,70.7,69.5,30.00,SW,219,1.0,4.0,96,0.00,,,0.00,Wunderground v.1.15,2013-06-24 09:47:00,
2013-06-24 05:53:00,70.7,69.5,30.00,SW,219,1.0,4.0,96,0.00,,,0.00,Wunderground v.1.15,2013-06-24 09:53:00,
2013-06-24 05:59:00,70.7,69.5,30.00,West,264,1.0,4.0,96,0.00,,,0.00,Wunderground v.1.15,2013-06-24 09:59:00,
2013-06-24 06:05:00,70.8,69.6,30.00,West,273,0.0,4.0,96,0.00,,,0.00,Wunderground v.1.15,2013-06-24 10:05:00,
2013-06-24 06:10:00,70.8,69.6,30.00,WSW,246,1.0,1.0,96,0.00,,,0.00,Wunderground v.1.15,2013-06-24 10:10:00,
2013-06-24 06:16:00,70.8,69.6,30.00,WSW,243,2.0,4.0,96,0.00,,,0.00,Wunderground v.1.15,2013-06-24 10:16:00,
2013-06-24 06:21:00,70.9,69.7,30.00,SW,232,1.0,4.0,96,0.00,,,0.00,Wunderground v.1.15,2013-06-24 10:21:00,
2013-06-24 06:26:00,70.9,69.7,30.00,SW,215,1.0,4.0,96,0.00,,,0.00,Wunderground v.1.15,2013-06-24 10:26:00,
2013-06-24 06:31:00,71.0,69.8,30.00,SSW,208,1.0,4.0,96,0.00,,,0.00,Wunderground v.1.15,2013-06-24 10:31:00,
2013-06-24 06:37:00,71.0,69.8,30.00,SSW,197,1.0,4.0,96,0.00,,,0.00,Wunderground v.1.15,2013-06-24 10:37:00,
2013-06-24 06:43:00,71.2,70.0,30.00,SSW,212,1.0,4.0,96,0.00,,,0.00,Wunderground v.1.15,2013-06-24 10:43:00,
2013-06-24 06:48:00,71.3,70.1,30.00,SW,233,0.0,4.0,96,0.00,,,0.00,Wunderground v.1.15,2013-06-24 10:48:00,
2013-06-24 06:54:00,71.4,70.2,30.00,SW,232,1.0,4.0,96,0.00,,,0.00,Wunderground v.1.15,2013-06-24 10:54:00,
2013-06-24 06:59:00,71.5,70.3,30.00,WSW,248,1.0,4.0,96,0.00,,,0.00,Wunderground v.1.15,2013-06-24 10:59:00,
2013-06-24 07:05:00,71.7,70.5,30.00,SW,218,1.0,4.0,96,0.00,,,0.00,Wunderground v.1.15,2013-06-24 11:05:00,
2013-06-24 07:10:00,71.8,70.6,30.00,WSW,239,2.0,2.0,96,0.00,,,0.00,Wunderground v.1.15,2013-06-24 11:10:00,
2013-06-24 07:15:00,72.1,70.9,30.00,WSW,250,1.0,4.0,96,0.00,,,0.00,Wunderground v.1.15,2013-06-24 11:15:00,
2013-06-24 07:21:00,72.3,71.1,30.00,West,265,1.0,4.0,96,0.00,,,0.00,Wunderground v.1.15,2013-06-24 11:21:00,
2013-06-24 07:26:00,72.4,70.9,30.00,WSW,239,1.0,4.0,95,0.00,,,0.00,Wunderground v.1.15,2013-06-24 11:26:00,
2013-06-24 07:32:00,72.6,71.1,30.00,SW,225,1.0,4.0,95,0.00,,,0.00,Wunderground v.1.15,2013-06-24 11:32:00,
2013-06-24 07:37:00,72.8,71.3,30.00,SW,222,1.0,4.0,95,0.00,,,0.00,Wunderground v.1.15,2013-06-24 11:37:00,
2013-06-24 07:43:00,73.1,71.6,30.00,SW,227,1.0,4.0,95,0.00,,,0.00,Wunderground v.1.15,2013-06-24 11:43:00,
2013-06-24 07:48:00,73.4,71.9,30.00,WSW,255,0.0,4.0,95,0.00,,,0.00,Wunderground v.1.15,2013-06-24 11:48:00,
2013-06-24 07:53:00,73.6,71.8,30.00,West,263,0.0,4.0,94,0.00,,,0.00,Wunderground v.1.15,2013-06-24 11:53:00,
2013-06-24 07:59:00,73.9,71.7,30.00,WSW,246,1.0,4.0,93,0.00,,,0.00,Wunderground v.1.15,2013-06-24 11:59:00,
2013-06-24 08:04:00,74.0,71.8,30.00,WSW,253,1.0,4.0,93,0.00,,,0.00,Wunderground v.1.15,2013-06-24 12:04:00,
2013-06-24 08:10:00,74.4,71.9,30.00,SW,218,2.0,2.0,92,0.00,,,0.00,Wunderground v.1.15,2013-06-24 12:10:00,
2013-06-24 08:15:00,74.7,72.2,30.00,WNW,291,1.0,4.0,92,0.00,,,0.00,Wunderground v.1.15,2013-06-24 12:15:00,
2013-06-24 08:21:00,75.3,72.5,30.00,West,259,1.0,4.0,91,0.00,,,0.00,Wunderground v.1.15,2013-06-24 12:21:00,
2013-06-24 08:27:00,75.8,72.7,30.00,West,269,1.0,4.0,90,0.00,,,0.00,Wunderground v.1.15,2013-06-24 12:27:00,
2013-06-24 08:33:00,76.6,73.4,30.00,NNW,332,1.0,4.0,90,0.00,,,0.00,Wunderground v.1.15,2013-06-24 12:33:00,
2013-06-24 08:40:00,77.2,73.0,30.00,SW,224,1.0,4.0,87,0.00,,,0.00,Wunderground v.1.15,2013-06-24 12:40:00,
2013-06-24 08:46:00,77.9,73.7,30.00,West,276,2.0,4.0,87,0.00,,,0.00,Wunderground v.1.15,2013-06-24 12:46:00,
2013-06-24 08:52:00,78.8,73.9,30.00,West,280,1.0,4.0,85,0.00,,,0.00,Wunderground v.1.15,2013-06-24 12:52:00,
2013-06-24 08:57:00,79.4,74.5,30.00,West,281,1.0,4.0,85,0.00,,,0.00,Wunderground v.1.15,2013-06-24 12:57:00,
2013-06-24 09:03:00,80.1,74.5,29.99,North,4,2.0,4.0,83,0.00,,,0.00,Wunderground v.1.15,2013-06-24 13:03:00,
2013-06-24 09:09:00,80.6,75.0,29.99,SSW,197,1.0,4.0,83,0.00,,,0.00,Wunderground v.1.15,2013-06-24 13:09:00,
2013-06-24 09:14:00,81.0,74.6,29.99,SW,225,2.0,4.0,81,0.00,,,0.00,Wunderground v.1.15,2013-06-24 13:14:00,
2013-06-24 09:19:00,81.4,75.0,29.99,SSW,205,2.0,4.0,81,0.00,,,0.00,Wunderground v.1.15,2013-06-24 13:19:00,
2013-06-24 09:25:00,81.6,74.1,29.99,NNW,333,2.0,4.0,78,0.00,,,0.00,Wunderground v.1.15,2013-06-24 13:25:00,
2013-06-24 09:31:00,82.3,75.1,29.99,SW,214,1.0,4.0,79,0.00,,,0.00,Wunderground v.1.15,2013-06-24 13:31:00,
2013-06-24 09:38:00,82.7,74.8,29.99,West,266,2.0,4.0,77,0.00,,,0.00,Wunderground v.1.15,2013-06-24 13:38:00,
2013-06-24 09:44:00,82.7,75.1,29.99,WSW,239,2.0,4.0,78,0.00,,,0.00,Wunderground v.1.15,2013-06-24 13:44:00,
2013-06-24 09:50:00,83.2,75.2,29.99,WSW,248,1.0,4.0,77,0.00,,,0.00,Wunderground v.1.15,2013-06-24 13:50:00,
2013-06-24 09:55:00,83.8,75.4,29.99,WNW,295,1.0,4.0,76,0.00,,,0.00,Wunderground v.1.15,2013-06-24 13:55:00,
2013-06-24 10:01:00,84.5,76.5,29.98,NE,49,2.0,4.0,77,0.00,,,0.00,Wunderground v.1.15,2013-06-24 14:01:00,
2013-06-24 10:07:00,84.7,75.1,29.98,NNW,328,2.0,4.0,73,0.00,,,0.00,Wunderground v.1.15,2013-06-24 14:07:00,
2013-06-24 10:12:00,84.9,75.3,29.98,SW,233,2.0,4.0,73,0.00,,,0.00,Wunderground v.1.15,2013-06-24 14:12:00,
2013-06-24 10:17:00,85.1,75.9,29.98,SW,221,2.0,4.0,74,0.00,,,0.00,Wunderground v.1.15,2013-06-24 14:17:00,
2013-06-24 10:23:00,85.5,75.0,29.98,West,264,2.0,4.0,71,0.00,,,0.00,Wunderground v.1.15,2013-06-24 14:23:00,
2013-06-24 10:29:00,85.8,75.7,29.98,SW,226,2.0,4.0,72,0.00,,,0.00,Wunderground v.1.15,2013-06-24 14:29:00,
2013-06-24 10:34:00,86.4,76.7,29.98,WSW,246,2.0,4.0,73,0.00,,,0.00,Wunderground v.1.15,2013-06-24 14:34:00,
2013-06-24 10:40:00,86.6,76.5,29.98,NNW,335,2.0,2.0,72,0.00,,,0.00,Wunderground v.1.15,2013-06-24 14:40:00,
2013-06-24 10:47:00,86.7,74.4,29.97,West,259,2.0,5.0,67,0.00,,,0.00,Wunderground v.1.15,2013-06-24 14:47:00,
2013-06-24 10:53:00,86.8,75.4,29.97,WSW,243,2.0,4.0,69,0.00,,,0.00,Wunderground v.1.15,2013-06-24 14:53:00,
2013-06-24 11:00:00,87.1,74.8,29.97,SSW,205,2.0,4.0,67,0.00,,,0.00,Wunderground v.1.15,2013-06-24 15:00:00,
2013-06-24 11:05:00,87.4,75.1,29.97,SSE,153,2.0,4.0,67,0.00,,,0.00,Wunderground v.1.15,2013-06-24 15:05:00,
2013-06-24 11:12:00,87.7,75.4,29.97,North,356,2.0,2.0,67,0.00,,,0.00,Wunderground v.1.15,2013-06-24 15:12:00,
2013-06-24 11:18:00,88.4,76.5,29.97,WNW,291,1.0,3.0,68,0.00,,,0.00,Wunderground v.1.15,2013-06-24 15:18:00,
2013-06-24 11:24:00,88.6,76.7,29.97,WSW,238,2.0,3.0,68,0.00,,,0.00,Wunderground v.1.15,2013-06-24 15:24:00,
2013-06-24 11:29:00,88.7,75.4,29.97,WSW,243,2.0,4.0,65,0.00,,,0.00,Wunderground v.1.15,2013-06-24 15:29:00,
2013-06-24 11:34:00,88.8,75.5,29.97,North,353,2.0,4.0,65,0.00,,,0.00,Wunderground v.1.15,2013-06-24 15:34:00,
2013-06-24 11:39:00,88.8,76.4,29.97,West,276,2.0,4.0,67,0.00,,,0.00,Wunderground v.1.15,2013-06-24 15:39:00,
2013-06-24 11:44:00,88.7,74.5,29.97,SSW,207,3.0,4.0,63,0.00,,,0.00,Wunderground v.1.15,2013-06-24 15:44:00,
2013-06-24 11:50:00,88.9,75.6,29.96,NNW,337,2.0,2.0,65,0.00,,,0.00,Wunderground v.1.15,2013-06-24 15:50:00,
2013-06-24 11:55:00,89.0,75.7,29.96,NNE,16,2.0,7.0,65,0.00,,,0.00,Wunderground v.1.15,2013-06-24 15:55:00,
2013-06-24 12:01:00,89.2,75.9,29.96,West,262,2.0,3.0,65,0.00,,,0.00,Wunderground v.1.15,2013-06-24 16:01:00,
2013-06-24 12:07:00,89.8,75.5,29.96,WSW,238,2.0,6.0,63,0.00,,,0.00,Wunderground v.1.15,2013-06-24 16:07:00,
2013-06-24 12:14:00,89.9,75.1,29.96,WSW,238,3.0,6.0,62,0.00,,,0.00,Wunderground v.1.15,2013-06-24 16:14:00,
2013-06-24 12:19:00,90.0,75.2,29.96,West,280,3.0,6.0,62,0.00,,,0.00,Wunderground v.1.15,2013-06-24 16:19:00,
2013-06-24 12:25:00,89.6,75.3,29.96,NNW,329,3.0,6.0,63,0.00,,,0.00,Wunderground v.1.15,2013-06-24 16:25:00,
2013-06-24 12:30:00,89.8,75.5,29.96,SW,236,3.0,3.0,63,0.00,,,0.00,Wunderground v.1.15,2013-06-24 16:30:00,
2013-06-24 12:36:00,90.3,77.8,29.96,WSW,249,2.0,6.0,67,0.00,,,0.00,Wunderground v.1.15,2013-06-24 16:36:00,
2013-06-24 12:43:00,90.2,75.4,29.96,West,263,3.0,6.0,62,0.00,,,0.00,Wunderground v.1.15,2013-06-24 16:43:00,
2013-06-24 12:52:00,90.6,76.3,29.96,SW,235,3.0,6.0,63,0.00,,,0.00,Wunderground v.1.15,2013-06-24 16:52:00,
2013-06-24 12:58:00,90.9,76.6,29.96,NW,320,2.0,6.0,63,0.00,,,0.00,Wunderground v.1.15,2013-06-24 16:58:00,
2013-06-24 13:04:00,90.8,75.0,29.95,NNW,332,2.0,6.0,60,0.00,,,0.00,Wunderground v.1.15,2013-06-24 17:04:00,
2013-06-24 13:10:00,90.9,75.6,29.95,NW,319,3.0,3.0,61,0.00,,,0.00,Wunderground v.1.15,2013-06-24 17:10:00,
2013-06-24 13:15:00,91.1,75.8,29.95,WSW,250,2.0,6.0,61,0.00,,,0.00,Wunderground v.1.15,2013-06-24 17:15:00,
2013-06-24 13:21:00,91.2,75.9,29.95,NNE,33,3.0,6.0,61,0.00,,,0.00,Wunderground v.1.15,2013-06-24 17:21:00,
2013-06-24 13:27:00,91.9,75.0,29.95,SE,134,2.0,6.0,58,0.00,,,0.00,Wunderground v.1.15,2013-06-24 17:27:00,
2013-06-24 13:32:00,92.1,76.2,29.95,East,101,2.0,6.0,60,0.00,,,0.00,Wunderground v.1.15,2013-06-24 17:32:00,
2013-06-24 13:37:00,92.0,75.1,29.95,SW,228,2.0,6.0,58,0.00,,,0.00,Wunderground v.1.15,2013-06-24 17:37:00,
2013-06-24 13:43:00,92.0,76.6,29.94,SSE,166,3.0,6.0,61,0.00,,,0.00,Wunderground v.1.15,2013-06-24 17:43:00,
2013-06-24 13:49:00,91.7,75.3,29.95,NW,318,3.0,6.0,59,0.00,,,0.00,Wunderground v.1.15,2013-06-24 17:49:00,
2013-06-24 13:55:00,91.7,75.3,29.95,West,260,3.0,6.0,59,0.00,,,0.00,Wunderground v.1.15,2013-06-24 17:55:00,
2013-06-24 14:00:00,91.2,75.4,29.94,West,269,2.0,2.0,60,0.00,,,0.00,Wunderground v.1.15,2013-06-24 18:00:00,
2013-06-24 14:05:00,91.1,75.8,29.94,WNW,287,2.0,6.0,61,0.00,,,0.00,Wunderground v.1.15,2013-06-24 18:05:00,
2013-06-24 14:11:00,91.2,75.4,29.94,WSW,238,2.0,4.0,60,0.00,,,0.00,Wunderground v.1.15,2013-06-24 18:11:00,
2013-06-24 14:16:00,91.4,76.1,29.94,West,273,3.0,6.0,61,0.00,,,0.00,Wunderground v.1.15,2013-06-24 18:16:00,
2013-06-24 14:21:00,91.6,77.2,29.94,West,271,3.0,6.0,63,0.00,,,0.00,Wunderground v.1.15,2013-06-24 18:21:00,
2013-06-24 14:30:00,91.6,74.7,29.93,West,267,2.0,6.0,58,0.00,,,0.00,Wunderground v.1.15,2013-06-24 18:30:00,
2013-06-24 14:36:00,91.7,75.8,29.93,West,280,2.0,6.0,60,0.00,,,0.00,Wunderground v.1.15,2013-06-24 18:36:00,
2013-06-24 14:42:00,92.2,76.3,29.93,West,263,2.0,6.0,60,0.00,,,0.00,Wunderground v.1.15,2013-06-24 18:42:00,
2013-06-24 14:47:00,92.2,74.8,29.92,West,281,2.0,7.0,57,0.00,,,0.00,Wunderground v.1.15,2013-06-24 18:47:00,
2013-06-24 14:52:00,92.0,75.1,29.92,West,270,3.0,6.0,58,0.00,,,0.00,Wunderground v.1.15,2013-06-24 18:52:00,
2013-06-24 14:57:00,92.2,76.3,29.92,West,263,2.0,6.0,60,0.00,,,0.00,Wunderground v.1.15,2013-06-24 18:57:00,
2013-06-24 15:03:00,92.5,76.1,29.92,WNW,282,1.0,6.0,59,0.00,,,0.00,Wunderground v.1.15,2013-06-24 19:03:00,
2013-06-24 15:08:00,92.3,75.9,29.92,WSW,239,2.0,6.0,59,0.00,,,0.00,Wunderground v.1.15,2013-06-24 19:08:00,
2013-06-24 15:13:00,92.2,75.8,29.92,West,276,3.0,6.0,59,0.00,,,0.00,Wunderground v.1.15,2013-06-24 19:13:00,
2013-06-24 15:18:00,92.2,74.8,29.92,WNW,290,3.0,6.0,57,0.00,,,0.00,Wunderground v.1.15,2013-06-24 19:18:00,
2013-06-24 15:25:00,92.2,75.8,29.91,SW,234,3.0,6.0,59,0.00,,,0.00,Wunderground v.1.15,2013-06-24 19:25:00,
2013-06-24 15:32:00,92.0,76.1,29.91,SSW,207,2.0,4.0,60,0.00,,,0.00,Wunderground v.1.15,2013-06-24 19:32:00,
2013-06-24 15:37:00,92.2,75.8,29.91,WNW,288,2.0,6.0,59,0.00,,,0.00,Wunderground v.1.15,2013-06-24 19:37:00,
2013-06-24 15:42:00,92.1,75.7,29.90,WNW,288,2.0,6.0,59,0.00,,,0.00,Wunderground v.1.15,2013-06-24 19:42:00,
2013-06-24 15:48:00,92.2,75.8,29.90,SW,225,2.0,6.0,59,0.00,,,0.00,Wunderground v.1.15,2013-06-24 19:48:00,
2013-06-24 15:54:00,92.7,75.8,29.90,NE,49,2.0,6.0,58,0.00,,,0.00,Wunderground v.1.15,2013-06-24 19:54:00,
2013-06-24 15:59:00,92.5,77.1,29.89,WSW,242,3.0,6.0,61,0.00,,,0.00,Wunderground v.1.15,2013-06-24 19:59:00,
2013-06-24 16:05:00,92.4,77.5,29.90,SSW,211,3.0,6.0,62,0.00,,,0.00,Wunderground v.1.15,2013-06-24 20:05:00,
2013-06-24 16:11:00,92.2,76.3,29.90,WSW,238,3.0,6.0,60,0.00,,,0.00,Wunderground v.1.15,2013-06-24 20:11:00,
2013-06-24 16:17:00,90.8,76.5,29.89,SW,223,4.0,6.0,63,0.00,,,0.00,Wunderground v.1.15,2013-06-24 20:17:00,
2013-06-24 16:22:00,90.0,77.1,29.89,West,276,3.0,6.0,66,0.00,,,0.00,Wunderground v.1.15,2013-06-24 20:22:00,
2013-06-24 16:27:00,90.4,77.5,29.90,WSW,256,2.0,6.0,66,0.00,,,0.00,Wunderground v.1.15,2013-06-24 20:27:00,
2013-06-24 16:33:00,90.9,76.6,29.89,SSW,205,3.0,6.0,63,0.00,,,0.00,Wunderground v.1.15,2013-06-24 20:33:00,
2013-06-24 16:39:00,91.1,77.2,29.89,SSW,210,4.0,6.0,64,0.00,,,0.00,Wunderground v.1.15,2013-06-24 20:39:00,
2013-06-24 16:44:00,91.4,77.5,29.89,WSW,241,3.0,6.0,64,0.00,,,0.00,Wunderground v.1.15,2013-06-24 20:44:00,
2013-06-24 16:50:00,91.0,75.7,29.89,South,173,3.0,6.0,61,0.00,,,0.00,Wunderground v.1.15,2013-06-24 20:50:00,
2013-06-24 16:55:00,90.9,76.1,29.89,WNW,290,4.0,6.0,62,0.00,,,0.00,Wunderground v.1.15,2013-06-24 20:55:00,
2013-06-24 17:01:00,90.6,76.3,29.89,WNW,291,3.0,6.0,63,0.00,,,0.00,Wunderground v.1.15,2013-06-24 21:01:00,
2013-06-24 17:07:00,90.2,74.9,29.89,West,274,4.0,9.0,61,0.00,,,0.00,Wunderground v.1.15,2013-06-24 21:07:00,
2013-06-24 17:13:00,89.3,74.6,29.89,WSW,243,4.0,8.0,62,0.00,,,0.00,Wunderground v.1.15,2013-06-24 21:13:00,
2013-06-24 17:19:00,89.1,74.9,29.89,WSW,257,4.0,8.0,63,0.00,,,0.00,Wunderground v.1.15,2013-06-24 21:19:00,
2013-06-24 17:25:00,88.8,74.6,29.89,SW,226,3.0,9.0,63,0.00,,,0.00,Wunderground v.1.15,2013-06-24 21:25:00,
2013-06-24 17:32:00,88.8,74.6,29.89,SSW,205,3.0,6.0,63,0.00,,,0.00,Wunderground v.1.15,2013-06-24 21:32:00,
2013-06-24 17:37:00,88.5,75.2,29.89,SSW,211,3.0,6.0,65,0.00,,,0.00,Wunderground v.1.15,2013-06-24 21:37:00,
2013-06-24 17:43:00,88.1,75.3,29.89,WNW,283,2.0,6.0,66,0.00,,,0.00,Wunderground v.1.15,2013-06-24 21:43:00,
2013-06-24 17:49:00,87.5,74.3,29.88,SW,224,3.0,6.0,65,0.00,,,0.00,Wunderground v.1.15,2013-06-24 21:49:00,
2013-06-24 17:55:00,87.2,74.5,29.88,SSW,205,3.0,6.0,66,0.00,,,0.00,Wunderground v.1.15,2013-06-24 21:55:00,
2013-06-24 18:00:00,86.8,74.5,29.89,SSW,208,2.0,6.0,67,0.00,,,0.00,Wunderground v.1.15,2013-06-24 22:00:00,
2013-06-24 18:06:00,86.4,74.6,29.89,SW,226,2.0,6.0,68,0.00,,,0.00,Wunderground v.1.15,2013-06-24 22:06:00,
2013-06-24 18:12:00,86.1,75.2,29.89,SW,226,2.0,6.0,70,0.00,,,0.00,Wunderground v.1.15,2013-06-24 22:12:00,
2013-06-24 18:18:00,85.8,75.3,29.90,SW,225,2.0,6.0,71,0.00,,,0.00,Wunderground v.1.15,2013-06-24 22:18:00,
2013-06-24 18:23:00,85.5,74.2,29.90,SW,232,2.0,6.0,69,0.00,,,0.00,Wunderground v.1.15,2013-06-24 22:23:00,
2013-06-24 18:28:00,85.2,74.3,29.90,SSW,204,2.0,6.0,70,0.00,,,0.00,Wunderground v.1.15,2013-06-24 22:28:00,
2013-06-24 18:35:00,84.9,74.4,29.90,SW,225,2.0,6.0,71,0.00,,,0.00,Wunderground v.1.15,2013-06-24 22:35:00,
2013-06-24 18:41:00,84.7,74.3,29.90,SW,215,2.0,6.0,71,0.00,,,0.00,Wunderground v.1.15,2013-06-24 22:41:00,
2013-06-24 18:47:00,84.5,74.1,29.90,SSW,198,2.0,6.0,71,0.00,,,0.00,Wunderground v.1.15,2013-06-24 22:47:00,
2013-06-24 18:53:00,84.3,74.3,29.90,WSW,245,3.0,6.0,72,0.00,,,0.00,Wunderground v.1.15,2013-06-24 22:53:00,
2013-06-24 18:59:00,84.2,74.2,29.90,SW,217,2.0,6.0,72,0.00,,,0.00,Wunderground v.1.15,2013-06-24 22:59:00,
2013-06-24 19:05:00,84.1,74.1,29.90,SSW,197,1.0,6.0,72,0.00,,,0.00,Wunderground v.1.15,2013-06-24 23:05:00,
2013-06-24 19:11:00,84.1,74.1,29.90,WSW,246,1.0,6.0,72,0.00,,,0.00,Wunderground v.1.15,2013-06-24 23:11:00,
2013-06-24 19:16:00,83.7,74.1,29.90,SW,219,1.0,6.0,73,0.00,,,0.00,Wunderground v.1.15,2013-06-24 23:16:00,
2013-06-24 19:22:00,83.2,73.6,29.90,WSW,245,2.0,7.0,73,0.00,,,0.00,Wunderground v.1.15,2013-06-24 23:22:00,
2013-06-24 19:27:00,82.6,73.5,29.90,SW,233,2.0,7.0,74,0.00,,,0.00,Wunderground v.1.15,2013-06-24 23:27:00,
2013-06-24 19:33:00,82.2,73.5,29.90,WSW,240,2.0,6.0,75,0.00,,,0.00,Wunderground v.1.15,2013-06-24 23:33:00,
2013-06-24 19:39:00,81.7,73.4,29.90,SW,232,2.0,6.0,76,0.00,,,0.00,Wunderground v.1.15,2013-06-24 23:39:00,
2013-06-24 19:45:00,81.3,73.4,29.90,SW,217,1.0,6.0,77,0.00,,,0.00,Wunderground v.1.15,2013-06-24 23:45:00,
2013-06-24 19:52:00,80.8,73.3,29.90,SW,221,1.0,6.0,78,0.00,,,0.00,Wunderground v.1.15,2013-06-24 23:52:00,
2013-06-24 19:57:00,80.6,73.1,29.90,South,191,1.0,6.0,78,0.00,,,0.00,Wunderground v.1.15,2013-06-24 23:57:00,
2013-06-24 20:02:00,80.3,73.2,29.90,SW,221,1.0,6.0,79,0.00,,,0.00,Wunderground v.1.15,2013-06-25 00:02:00,
2013-06-24 20:08:00,80.1,73.0,29.90,SSW,193,2.0,6.0,79,0.00,,,0.00,Wunderground v.1.15,2013-06-25 00:08:00,
2013-06-24 20:13:00,79.9,73.2,29.91,SW,226,1.0,6.0,80,0.00,,,0.00,Wunderground v.1.15,2013-06-25 00:13:00,
2013-06-24 20:18:00,79.7,73.0,29.92,WSW,248,1.0,6.0,80,0.00,,,0.00,Wunderground v.1.15,2013-06-25 00:18:00,
2013-06-24 20:24:00,79.6,73.3,29.92,WSW,253,0.0,6.0,81,0.00,,,0.00,Wunderground v.1.15,2013-06-25 00:24:00,
2013-06-24 20:30:00,79.7,72.6,29.93,NNE,18,1.0,6.0,79,0.00,,,0.00,Wunderground v.1.15,2013-06-25 00:30:00,
2013-06-24 20:36:00,79.8,67.9,29.94,North,5,5.0,15.0,67,0.00,,,0.00,Wunderground v.1.15,2013-06-25 00:36:00,
2013-06-24 20:41:00,79.4,66.6,29.94,North,356,6.0,7.0,65,0.00,,,0.00,Wunderground v.1.15,2013-06-25 00:41:00,
2013-06-24 20:48:00,78.4,65.7,29.94,NW,312,6.0,9.0,65,0.00,,,0.00,Wunderground v.1.15,2013-06-25 00:48:00,
2013-06-24 20:54:00,77.6,65.3,29.94,ENE,76,5.0,8.0,66,0.00,,,0.00,Wunderground v.1.15,2013-06-25 00:54:00,
2013-06-24 20:59:00,77.1,65.7,29.94,NNE,20,3.0,8.0,68,0.00,,,0.00,Wunderground v.1.15,2013-06-25 00:59:00,
2013-06-24 21:04:00,76.5,65.6,29.93,WNW,283,3.0,6.0,69,0.00,,,0.00,Wunderground v.1.15,2013-06-25 01:04:00,
2013-06-24 21:11:00,75.7,65.6,29.94,NNE,22,3.0,5.0,71,0.00,,,0.00,Wunderground v.1.15,2013-06-25 01:11:00,
2013-06-24 21:16:00,75.3,65.6,29.93,NNW,335,2.0,6.0,72,0.00,,,0.00,Wunderground v.1.15,2013-06-25 01:16:00,
2013-06-24 21:22:00,74.9,66.1,29.93,NNW,337,1.0,6.0,74,0.00,,,0.00,Wunderground v.1.15,2013-06-25 01:22:00,
2013-06-24 21:27:00,74.4,66.0,29.93,NNW,337,1.0,6.0,75,0.00,,,0.00,Wunderground v.1.15,2013-06-25 01:27:00,
2013-06-24 21:32:00,73.9,65.9,29.94,West,280,0.0,6.0,76,0.00,,,0.00,Wunderground v.1.15,2013-06-25 01:32:00,
2013-06-24 21:37:00,73.5,65.8,29.94,ENE,57,1.0,6.0,77,0.00,,,0.00,Wunderground v.1.15,2013-06-25 01:37:00,
2013-06-24 21:43:00,73.0,66.1,29.93,ESE,113,2.0,6.0,79,0.00,,,0.00,Wunderground v.1.15,2013-06-25 01:43:00,
2013-06-24 21:48:00,72.6,66.1,29.94,SSW,207,2.0,6.0,80,0.00,,,0.00,Wunderground v.1.15,2013-06-25 01:48:00,
2013-06-24 21:53:00,72.4,66.2,29.93,NW,308,2.0,6.0,81,0.00,,,0.00,Wunderground v.1.15,2013-06-25 01:53:00,
2013-06-24 22:00:00,72.0,66.2,29.94,NW,308,1.0,1.0,82,0.00,,,0.00,Wunderground v.1.15,2013-06-25 02:00:00,
2013-06-24 22:06:00,71.7,65.9,29.94,West,267,0.0,6.0,82,0.00,,,0.00,Wunderground v.1.15,2013-06-25 02:06:00,
2013-06-24 22:12:00,71.4,66.0,29.94,SW,234,0.0,6.0,83,0.00,,,0.00,Wunderground v.1.15,2013-06-25 02:12:00,
2013-06-24 22:17:00,71.1,66.0,29.94,SW,235,0.0,6.0,84,0.00,,,0.00,Wunderground v.1.15,2013-06-25 02:17:00,
2013-06-24 22:23:00,70.6,65.5,29.94,SW,235,0.0,6.0,84,0.00,,,0.00,Wunderground v.1.15,2013-06-25 02:23:00,
2013-06-24 22:28:00,70.3,65.6,29.95,SW,235,0.0,6.0,85,0.00,,,0.00,Wunderground v.1.15,2013-06-25 02:28:00,
2013-06-24 22:33:00,69.8,65.4,29.94,SW,234,0.0,6.0,86,0.00,,,0.00,Wunderground v.1.15,2013-06-25 02:33:00,
2013-06-24 22:38:00,69.4,65.4,29.94,SW,235,0.0,6.0,87,0.00,,,0.00,Wunderground v.1.15,2013-06-25 02:38:00,
2013-06-24 22:44:00,69.0,65.3,29.95,SW,234,0.0,6.0,88,0.00,,,0.00,Wunderground v.1.15,2013-06-25 02:44:00,
2013-06-24 22:50:00,68.6,65.2,29.94,SW,235,0.0,6.0,89,0.00,,,0.00,Wunderground v.1.15,2013-06-25 02:50:00,
2013-06-24 22:55:00,68.2,64.8,29.94,SW,235,0.0,6.0,89,0.00,,,0.00,Wunderground v.1.15,2013-06-25 02:55:00,
2013-06-24 23:01:00,67.9,64.9,29.94,SW,235,0.0,6.0,90,0.00,,,0.00,Wunderground v.1.15,2013-06-25 03:01:00,
2013-06-24 23:07:00,67.8,65.1,29.94,SW,235,0.0,6.0,91,0.00,,,0.00,Wunderground v.1.15,2013-06-25 03:07:00,
2013-06-24 23:13:00,67.6,64.9,29.93,SW,234,0.0,0.0,91,0.00,,,0.00,Wunderground v.1.15,2013-06-25 03:13:00,
2013-06-24 23:19:00,67.3,64.9,29.93,SW,235,0.0,0.0,92,0.00,,,0.00,Wunderground v.1.15,2013-06-25 03:19:00,
2013-06-24 23:25:00,67.1,64.7,29.92,SW,235,0.0,0.0,92,0.00,,,0.00,Wunderground v.1.15,2013-06-25 03:25:00,
2013-06-24 23:31:00,67.0,64.6,29.92,SW,234,0.0,0.0,92,0.00,,,0.00,Wunderground v.1.15,2013-06-25 03:31:00,
2013-06-24 23:39:00,66.8,64.7,29.92,SW,234,0.0,0.0,93,0.00,,,0.00,Wunderground v.1.15,2013-06-25 03:39:00,
2013-06-24 23:49:00,66.9,64.8,29.92,SW,235,0.0,0.0,93,0.00,,,0.00,Wunderground v.1.15,2013-06-25 03:49:00,
2013-06-24 23:55:00,66.9,64.8,29.92,SW,235,0.0,0.0,93,0.00,,,0.00,Wunderground v.1.15,2013-06-25 03:55:00,